Flag for U.S.A. Weather past 2 weeks in Salina, Kansas, U.S.A.

Now
46 °F

Sunny.


Feels Like: 38 °F
Forecast: 24 / 46 °F
Wind: 20 mph from North

Location: Salina Municipal Airport

Current Time: Mar 3, 2015 at 3:05:15 PM

Latest Report: Mar 3, 2015 at 1:53 PM


Visibility: 10 mi

Pressure: 29.87 "Hg

Humidity: 46%

Dew point: 26 °F

Location of SalinaLocation

Historic Weather in Salina — Graph

°F

Salina temperature yesterday

Maximum temperature yesterday: 38 °F (at 11:53 AM)
Minimum temperature yesterday: 22 °F (at 12:53 AM)
Average temperature yesterday: 31 °F

Past Weeks' High & Low Weather Summary

 TemperatureHumidityPressure
High58 °F (Feb 25, 1:53 PM)92% (Mar 1, 6:53 AM)30.83 "Hg (Mar 1, 6:53 AM)
Low9 °F (Feb 27, 1:53 AM)25% (Feb 23, 3:53 PM)29.64 "Hg (Mar 3, 3:57 AM)
Average27 °F60%30.29 "Hg
* Reported Feb 16 12:53 PM — Mar 3 12:53 PM, Salina, Weather by CustomWeather, © 2015

Note: Actual official high and low records may vary slightly from our data, if they occured in-between our weather recording intervals... More about our weather records

Advertising

Salina weather history for previous 24 hours

 ConditionsComfort  
Time TempWeatherWind HumidityBarometerVisibility
12:53 PM
Tue, Mar 3
49 °FSunny.18 mph43%29.88 "Hg10 mi
11:53 AM48 °FSunny.23 mph44%29.88 "Hg10 mi
10:53 AM44 °FSunny.21 mph55%29.86 "Hg10 mi
9:53 AM45 °FSunny.23 mph60%29.82 "Hg10 mi
8:53 AM44 °FSunny.14 mph71%29.75 "Hg10 mi
7:53 AM40 °FSunny.22 mph77%29.70 "Hg10 mi
6:53 AM39 °FClear.25 mph79%29.67 "Hg10 mi
5:53 AM39 °FPassing clouds.18 mph76%29.70 "Hg10 mi
4:53 AM38 °FPassing clouds.25 mph79%29.68 "Hg9 mi
3:57 AM37 °FPassing clouds.31 mph79%29.64 "Hg8 mi
2:53 AM36 °FOvercast.17 mph82%29.72 "Hg6 mi
1:53 AM35 °FLow clouds.15 mph82%29.79 "Hg5 mi
12:53 AM33 °FFog.16 mph88%29.83 "Hg4 mi
11:53 PM
Mon, Mar 2
33 °FPassing clouds.18 mph78%29.88 "Hg6 mi
10:53 PM33 °FClear.14 mph75%29.94 "Hg7 mi
9:53 PM33 °FPassing clouds.20 mph72%29.98 "Hg9 mi
8:53 PM33 °FPassing clouds.14 mph75%30.03 "Hg10 mi
7:53 PM34 °FClear.13 mph67%30.06 "Hg10 mi
6:53 PM34 °FClear.10 mph61%30.10 "Hg10 mi
5:53 PM35 °FSunny.14 mph54%30.14 "Hg10 mi
4:53 PM35 °FSunny.18 mph52%30.16 "Hg10 mi
3:53 PM37 °FSunny.17 mph46%30.20 "Hg10 mi
Weather by CustomWeather, © 2015

See weather overviewHow to use our weather pages